Regional Weather Roundup
Issued by NWS

Home | Current Version | Previous Version | Text Only | Print | Product List | Glossary On
Versions: 1 2 3 4 5 6 7 8 9 10 11 12 13 14 15 16 17 18 19 20 21 22 23 24 25 26 27 28 29 30 31 32 33 34 35 36 37 38 39 40 41 42 43 44 45 46 47 48 49 50
000
ASUS43 KMKX 142200
RWRWI

WISCONSIN REGIONAL WEATHER ROUNDUP
NATIONAL WEATHER SERVICE MILWAUKEE/SULLIVAN WI
500 PM CDT SUN SEP 14 2014

NOTE: "FAIR" INDICATES FEW OR NO CLOUDS BELOW 12,000 FEET WITH NO
SIGNIFICANT WEATHER AND/OR OBSTRUCTIONS TO VISIBILITY.

WIZ001-002-006>008-014>016-023>028-142300-
NORTHWEST WISCONSIN

CITY           SKY/WX    TMP DP  RH WIND       PRES   REMARKS
SUPERIOR ARPT  MOSUNNY   61  43  51 NW14      30.05S
ASHLAND        PTSUNNY   60  42  51 W6        30.05R
HAYWARD        CLOUDY    59  40  49 W8        30.07R
SIREN          PTSUNNY   60  42  49 W10       30.08S
RICE LAKE      MOSUNNY   62  37  40 W13G18    30.09S
LADYSMITH      MOSUNNY   61  41  47 W10       30.08S
EAU CLAIRE     NOT AVBL
MENOMONIE      CLEAR     65  37  35 SW14G20   30.08S
NEW RICHMOND   SUNNY     63  37  37 W13       30.10R
OSCEOLA        MOSUNNY   62  41  46 W10       30.12R
$$

WIZ003>005-009-010-017-018-142300-
NORTH CENTRAL WISCONSIN

CITY           SKY/WX    TMP DP  RH WIND       PRES   REMARKS
WOODRUFF       MOSUNNY   59  40  48 W12G17    30.04S
RHINELANDER    PTSUNNY   61  42  49 W10       30.06S
EAGLE RIVER    PTSUNNY   58  40  51 W10G16    30.03S
LAND O LAKES   CLOUDY    59  41  51 W8        30.04R
PHILLIPS       PTSUNNY   60  39  46 W9        30.05R
TOMAHAWK       PTSUNNY   61  42  50 SW10      30.06S
MEDFORD        MOSUNNY   61  43  51 W12G22    30.07S
MERRILL        PTSUNNY   63  45  53 W15       30.06S
$$

WIZ029-030-035-036-043>047-142300-
CENTRAL WISCONSIN

CITY           SKY/WX    TMP DP  RH WIND       PRES   REMARKS
WAUSAU         PTSUNNY   62  48  60 W12       30.06S
MOSINEE        NOT AVBL
MARSHFIELD     MOSUNNY   65  49  56 W14       30.07F
STEVENS POINT  MOSUNNY   63  46  54 SW10      30.08S
WAUPACA        PTSUNNY   67  47  48 SW12      30.09F
WAUTOMA        NOT AVBL
WISC RAPIDS    LGT RAIN  66  47  50 SW12      30.09F
CAMP DOUGLAS   NOT AVBL
$$

WIZ011>013-019>022-031-037>040-048>050-142300-
NORTHEAST WISCONSIN

CITY           SKY/WX    TMP DP  RH WIND       PRES   REMARKS
ANTIGO         PTSUNNY   61  46  58 W17G25    30.07S
STURGEON BAY   PTSUNNY   63  45  51 S16       30.08F
GREEN BAY      MOSUNNY   65  46  50 SW13G22   30.09F
MANITOWOC      NOT AVBL
APPLETON       PTSUNNY   64  45  48 SW13      30.11S
CLINTONVILLE   CLOUDY    64  45  48 SW13G21   30.07S
OSHKOSH        PTSUNNY   63  46  54 SW8       30.11S
$$

WIZ032>034-041-042-053>061-142300-
SOUTHWEST WISCONSIN

CITY           SKY/WX    TMP DP  RH WIND       PRES   REMARKS
LA CROSSE      PTSUNNY   70  49  47 SW12      30.08F
SPARTA         MOSUNNY   68  46  45 SW8G16    30.10S
VIROQUA        CLOUDY    65  47  51 SW10G16   30.12S
BOSCOBEL       MOSUNNY   69  46  43 SW15      30.13F
PRAIRIE DU CHI PTSUNNY   67  45  44 S8        30.13S
PLATTEVILLE    FAIR      64  46  52 SW10G17   30.17S
$$

WIZ056-057-062-063-064-067-068-142300-
SOUTH CENTRAL WISCONSIN

CITY           SKY/WX    TMP DP  RH WIND       PRES   REMARKS
BARABOO/DELLS  MOSUNNY   66  44  45 SW13G21   30.12S
LONE ROCK      NOT AVBL
WATERTOWN      SUNNY     64  45  49 SW14G21   30.14S
MADISON        MOSUNNY   65  45  48 SW8G21    30.14F
MIDDLETON      FAIR      67  45  45 SW10G17   30.14S
MONROE         SUNNY     64  45  48 SW10      30.15F
JANESVILLE     MOSUNNY   66  43  42 SW12G17   30.15F
$$

WIZ051-052-058>065-066-070>072-142300-
SOUTHEAST WISCONSIN

CITY           SKY/WX    TMP DP  RH WIND       PRES   REMARKS
MILWAUKEE      MOSUNNY   63  43  48 S13       30.16F
WAUKESHA       NOT AVBL
MILWAUKEE/TIMM NOT AVBL
RACINE         SUNNY     64  44  48 SW10      30.18F
BURLINGTON     SUNNY     63  43  48 SW10      30.17S
KENOSHA        MOSUNNY   63  46  54 SW15      30.17F
FOND DU LAC    MOSUNNY   65  46  50 SW12G18   30.12S
SHEBOYGAN      MOSUNNY   64  45  49 SW15      30.13S
WEST BEND      MOSUNNY   63  41  45 SW10G18   30.14S
JUNEAU         PTSUNNY   64  45  51 SW13      30.15S
$$

LSZ147-162-142300-
LAKE SUPERIOR

STATION/POSITION TIME  TEMP    WIND        PRES    WAVE
                       AIR SEA DIR/SP/G            HT/PER
                 (UTC) (F)     (DEG/KT/KT) (MB)    (FT/S)
W MID LAKE BUOY  1950   51 47  240/ 16/ 17 1015.5S   5/ 6
DEVILS ISLAND    2100   54     250/ 16/ 19 1016.7S
PORT WING        2100   57     280/ 15/ 18 1017.6R
SAXON HARBOR     2140   61     280/ 11/ 16 1017.3R
$$

LMZ867-665-643>646-142300-
LAKE MICHIGAN

STATION/POSITION TIME  TEMP    WIND        PRES    WAVE
                       AIR SEA DIR/SP/G            HT/PER
                 (UTC) (F)     (DEG/KT/KT) (MB)    (FT/S)
N MID LAKE BUOY  2050   57 58  210/ 23/ 27 1018.9F   6/ 6
NORTHPORT PIER   2100   59     170/ 10/ 19 1018.3F
KEWAUNEE LAKESHO 2100   54     180/ 15/ 20 1018.8F
SHEBOYGAN LAKESH 2100   57 51  170/ 18/ 19 1020.7F
PORT WASHINGTON  2100   68     200/  8/ 14 1021.3F
MILWAUKEE LAKESH 2100   61     210/ 15/ 19   N/A
S MID LAKE BUOY  2050   58 65  200/ 12/ 14 1022.9F   2/ 3
KENOSHA   LAKESH 2100   63     230/  9/ 14 1021.7F
$$

TC  - TEMPERATURE IN CELSIUS
VSB - VISIBILITY IN STATUTE MILES
WCI - WIND CHILL INDEX
HX  - HEAT INDEX




USA.gov is the U.S. government's official web portal to all federal, state and local government web resources and services.